Weather in Chushevitsy

Russia / Vologda Oblast     60°30′04″N   41°45′33″E
temp.,
°C
wind,
m/s
gust,
m/s
humid.,
%
clouds,
%
prec.,
mm/h
press.,
hPa
HPBL,
m
18 may, tue
tue1800:00+12ese258735 0.0 101890
03:00+11ese3109128 0.0 1017194
06:00+15ese4127780 0.1 1017353
09:00+20se5959100 0.1 1016649
12:00+24se5850100 0.0 10161102
15:00+26sse5747100 0.0 10151387
18:00+25se49545 0.0 10141149
21:00+19se3128315 0.4 1015340
19 may, wed
wed1900:00+17sse41488100 0.1 1015404
03:00+16se3129551 0.1 1015318
06:00+18sse312857 0.0 1014435
09:00+24sse59545 0.0 1014713
12:00+28sse59375 0.0 10141471
15:00+29sse57310 0.0 10132430
18:00+26sse48450 0.0 10121488
21:00+21se413630 0.0 1013600
20 may, thu
thu2000:00+18sse414740 0.0 1013476
03:00+15se311840 0.0 1013293
06:00+18se311710 0.0 1012340
09:00+24se47490 0.0 1012724
12:00+27sse58395 0.0 10101679
15:00+28sse68320 0.0 10092314
18:00+25se5104295 0.0 10081985
21:00+20se413610 0.0 1008616
21 may, fri
fri2100:00+17sse312785 0.0 1007513
03:00+15se311836 0.0 1007482
06:00+16sse498199 0.3 1006470
09:00+17sse4879100 1.1 1005897
12:00+19s5768100 1.4 10051326
15:00+14sw4988100 4.6 1005439
18:00+15w487612 1.0 1006950
21:00+12w3108065 1.1 1009808
22 may, sat
sat2200:00+8sw26953 0.0 1011119
03:00+9sw311886 0.0 1012322
06:00+11sw310695 0.0 1013503
09:00+15sw510415 0.0 10142015
12:00+17sw59335 0.0 10142392
15:00+18wsw58315 0.0 10142357
18:00+17wsw364130 0.0 10152187
21:00+12sw24635 0.0 101678